Time,TemperatureF,DewpointF,PressureIn,WindDirection,WindDirectionDegrees,WindSpeedMPH,WindSpeedGustMPH,Humidity,HourlyPrecipIn,Conditions,Clouds,dailyrainin,SolarRadiationWatts/m^2,SoftwareType,DateUTC
2013-02-05 00:03:00,32.0,31.0,-100.00,SW,226,9.0,17.0,97,0.00,,,0.03,0.000000,,2013-02-05 05:03:00,
2013-02-05 00:12:00,32.0,31.0,-100.00,SW,226,9.0,17.0,97,0.00,,,0.03,0.000000,,2013-02-05 05:12:00,
2013-02-05 00:42:00,32.0,31.0,-100.00,SW,235,7.0,15.0,97,0.00,,,-99.99,0.000000,,2013-02-05 05:42:00,
2013-02-05 00:52:00,32.0,31.0,-100.00,SW,235,7.0,15.0,97,0.00,,,-99.99,0.000000,,2013-02-05 05:52:00,
2013-02-05 01:02:00,32.0,31.0,-100.00,SW,235,7.0,15.0,97,0.00,,,-99.99,0.000000,,2013-02-05 06:02:00,
2013-02-05 01:11:00,32.0,31.0,-100.00,SW,235,7.0,15.0,97,0.00,,,-99.99,0.000000,,2013-02-05 06:11:00,
2013-02-05 01:32:00,32.0,31.0,-100.00,SW,227,8.0,14.0,97,0.00,,,0.03,0.000000,,2013-02-05 06:32:00,
2013-02-05 01:42:00,32.0,31.0,-100.00,SW,227,8.0,14.0,97,0.00,,,0.03,0.000000,,2013-02-05 06:42:00,
2013-02-05 01:52:00,32.0,31.0,-100.00,SW,227,8.0,14.0,97,0.00,,,0.03,0.000000,,2013-02-05 06:52:00,
2013-02-05 02:01:00,32.0,31.0,-100.00,SW,227,8.0,14.0,97,0.00,,,0.03,0.000000,,2013-02-05 07:01:00,
2013-02-05 02:11:00,32.0,31.0,-100.00,SW,227,8.0,14.0,97,0.00,,,0.03,0.000000,,2013-02-05 07:11:00,
2013-02-05 02:32:00,32.0,32.0,-100.00,WSW,240,4.0,12.0,98,0.00,,,0.03,0.000000,,2013-02-05 07:32:00,
2013-02-05 02:42:00,32.0,32.0,-100.00,WSW,240,4.0,12.0,98,0.00,,,0.03,0.000000,,2013-02-05 07:42:00,
2013-02-05 02:52:00,32.0,32.0,-100.00,WSW,240,4.0,12.0,98,0.00,,,0.03,0.000000,,2013-02-05 07:52:00,
2013-02-05 03:01:00,32.0,32.0,-100.00,WSW,240,4.0,12.0,98,0.00,,,0.03,0.000000,,2013-02-05 08:01:00,
2013-02-05 03:11:00,32.0,32.0,-100.00,WSW,240,4.0,12.0,98,0.00,,,0.03,0.000000,,2013-02-05 08:11:00,
2013-02-05 03:42:00,32.0,32.0,-100.00,WSW,254,5.0,9.0,98,0.00,,,0.03,0.000000,,2013-02-05 08:42:00,
2013-02-05 03:52:00,32.0,32.0,-100.00,WSW,254,5.0,9.0,98,0.00,,,0.03,0.000000,,2013-02-05 08:52:00,
2013-02-05 04:02:00,32.0,32.0,-100.00,WSW,254,5.0,9.0,98,0.00,,,0.03,0.000000,,2013-02-05 09:02:00,
2013-02-05 04:11:00,32.0,32.0,-100.00,WSW,254,5.0,9.0,98,0.00,,,0.03,0.000000,,2013-02-05 09:11:00,
2013-02-05 04:42:00,32.0,32.0,-100.00,West,266,5.0,9.0,98,0.00,,,0.03,0.000000,,2013-02-05 09:42:00,
2013-02-05 04:52:00,32.0,32.0,-100.00,West,266,5.0,9.0,98,0.00,,,0.03,0.000000,,2013-02-05 09:52:00,
2013-02-05 05:02:00,32.0,32.0,-100.00,West,266,5.0,9.0,98,0.00,,,0.03,0.000000,,2013-02-05 10:02:00,
2013-02-05 05:11:00,32.0,32.0,-100.00,West,266,5.0,9.0,98,0.00,,,0.03,0.000000,,2013-02-05 10:11:00,
2013-02-05 05:32:00,32.0,32.0,-100.00,WSW,253,8.0,12.0,98,0.00,,,0.03,0.000000,,2013-02-05 10:32:00,
2013-02-05 05:42:00,32.0,32.0,-100.00,WSW,253,8.0,12.0,98,0.00,,,0.03,0.000000,,2013-02-05 10:42:00,
2013-02-05 05:52:00,32.0,32.0,-100.00,WSW,253,8.0,12.0,98,0.00,,,0.03,0.000000,,2013-02-05 10:52:00,
2013-02-05 06:01:00,32.0,32.0,-100.00,WSW,253,8.0,12.0,98,0.00,,,0.03,0.000000,,2013-02-05 11:01:00,
2013-02-05 06:11:00,32.0,32.0,-100.00,WSW,253,8.0,12.0,98,0.00,,,0.03,0.000000,,2013-02-05 11:11:00,
2013-02-05 06:32:00,31.0,31.0,-100.00,WSW,256,7.0,13.0,98,0.00,,,0.03,0.000000,,2013-02-05 11:32:00,
2013-02-05 06:42:00,31.0,31.0,-100.00,WSW,256,7.0,13.0,98,0.00,,,0.03,0.000000,,2013-02-05 11:42:00,
2013-02-05 06:52:00,31.0,31.0,-100.00,WSW,256,7.0,13.0,98,0.00,,,0.03,0.000000,,2013-02-05 11:52:00,
2013-02-05 07:02:00,31.0,31.0,-100.00,WSW,256,7.0,13.0,98,0.00,,,0.03,0.000000,,2013-02-05 12:02:00,
2013-02-05 07:12:00,31.0,31.0,-100.00,WSW,256,7.0,13.0,98,0.00,,,0.03,0.000000,,2013-02-05 12:12:00,
2013-02-05 07:32:00,31.0,31.0,-100.00,WSW,254,7.0,14.0,98,0.00,,,0.03,0.000000,,2013-02-05 12:32:00,
2013-02-05 07:42:00,31.0,31.0,-100.00,WSW,254,7.0,14.0,98,0.00,,,0.03,0.000000,,2013-02-05 12:42:00,
2013-02-05 07:52:00,31.0,31.0,-100.00,WSW,254,7.0,14.0,98,0.00,,,0.03,0.000000,,2013-02-05 12:52:00,
2013-02-05 08:02:00,31.0,31.0,-100.00,WSW,254,7.0,14.0,98,0.00,,,0.03,0.000000,,2013-02-05 13:02:00,
2013-02-05 08:12:00,31.0,31.0,-100.00,WSW,254,7.0,14.0,98,0.00,,,0.03,0.000000,,2013-02-05 13:12:00,
2013-02-05 08:42:00,31.0,30.0,-100.00,SSE,156,3.0,15.0,97,0.00,,,0.03,9.000000,,2013-02-05 13:42:00,
2013-02-05 08:52:00,31.0,30.0,-100.00,SSE,156,3.0,15.0,97,0.00,,,0.03,9.000000,,2013-02-05 13:52:00,
2013-02-05 09:01:00,31.0,30.0,-100.00,SSE,156,3.0,15.0,97,0.00,,,0.03,9.000000,,2013-02-05 14:01:00,
2013-02-05 09:12:00,31.0,30.0,-100.00,SSE,156,3.0,15.0,97,0.00,,,0.03,9.000000,,2013-02-05 14:12:00,
2013-02-05 09:42:00,32.0,31.0,-100.00,SSW,206,4.0,6.0,96,0.00,,,0.03,38.000000,,2013-02-05 14:42:00,
2013-02-05 09:52:00,32.0,31.0,-100.00,SSW,206,4.0,6.0,96,0.00,,,0.03,38.000000,,2013-02-05 14:52:00,
2013-02-05 10:02:00,32.0,31.0,-100.00,SSW,206,4.0,6.0,96,0.00,,,0.03,38.000000,,2013-02-05 15:02:00,
2013-02-05 10:11:00,32.0,31.0,-100.00,SSW,206,4.0,6.0,96,0.00,,,0.03,38.000000,,2013-02-05 15:11:00,
2013-02-05 10:32:00,32.0,31.0,-100.00,SSW,196,5.0,9.0,95,0.00,,,0.03,82.000000,,2013-02-05 15:32:00,
2013-02-05 10:42:00,32.0,31.0,-100.00,SSW,196,5.0,9.0,95,0.00,,,0.03,82.000000,,2013-02-05 15:42:00,
2013-02-05 10:52:00,32.0,31.0,-100.00,SSW,196,5.0,9.0,95,0.00,,,0.03,82.000000,,2013-02-05 15:52:00,
2013-02-05 11:02:00,32.0,31.0,-100.00,SSW,196,5.0,9.0,95,0.00,,,0.03,82.000000,,2013-02-05 16:02:00,
2013-02-05 11:12:00,32.0,31.0,-100.00,SSW,196,5.0,9.0,95,0.00,,,0.03,82.000000,,2013-02-05 16:12:00,
2013-02-05 11:33:00,33.0,32.0,-100.00,SW,233,4.0,8.0,95,0.00,,,-99.99,65.000000,,2013-02-05 16:33:00,
2013-02-05 11:42:00,33.0,32.0,-100.00,SW,233,4.0,8.0,95,0.00,,,-99.99,65.000000,,2013-02-05 16:42:00,
2013-02-05 11:52:00,33.0,32.0,-100.00,SW,233,4.0,8.0,95,0.00,,,-99.99,65.000000,,2013-02-05 16:52:00,
2013-02-05 12:01:00,33.0,32.0,-100.00,SW,233,4.0,8.0,95,0.00,,,-99.99,65.000000,,2013-02-05 17:01:00,
2013-02-05 12:12:00,33.0,32.0,-100.00,SW,233,4.0,8.0,95,0.00,,,-99.99,65.000000,,2013-02-05 17:12:00,
2013-02-05 12:33:00,34.0,33.0,-100.00,SW,224,7.0,10.0,96,0.00,,,0.03,68.000000,,2013-02-05 17:33:00,
2013-02-05 12:42:00,34.0,33.0,-100.00,SW,224,7.0,10.0,96,0.00,,,0.03,68.000000,,2013-02-05 17:42:00,
2013-02-05 12:52:00,34.0,33.0,-100.00,SW,224,7.0,10.0,96,0.00,,,0.03,68.000000,,2013-02-05 17:52:00,
2013-02-05 13:02:00,34.0,33.0,-100.00,SW,224,7.0,10.0,96,0.00,,,0.03,68.000000,,2013-02-05 18:02:00,
2013-02-05 13:11:00,34.0,33.0,-100.00,SW,224,7.0,10.0,96,0.00,,,0.03,68.000000,,2013-02-05 18:11:00,
2013-02-05 13:32:00,35.0,34.0,-100.00,SW,223,10.0,15.0,96,0.00,,,0.03,93.000000,,2013-02-05 18:32:00,
2013-02-05 13:42:00,35.0,34.0,-100.00,SW,223,10.0,15.0,96,0.00,,,0.03,93.000000,,2013-02-05 18:42:00,
2013-02-05 13:52:00,35.0,34.0,-100.00,SW,223,10.0,15.0,96,0.00,,,0.03,93.000000,,2013-02-05 18:52:00,
2013-02-05 14:02:00,35.0,34.0,-100.00,SW,223,10.0,15.0,96,0.00,,,0.03,93.000000,,2013-02-05 19:02:00,
2013-02-05 14:11:00,35.0,34.0,-100.00,SW,223,10.0,15.0,96,0.00,,,0.03,93.000000,,2013-02-05 19:11:00,
2013-02-05 14:42:00,35.0,34.0,-100.00,SW,234,13.0,22.0,96,0.05,,,0.06,46.000000,,2013-02-05 19:42:00,
2013-02-05 14:52:00,35.0,34.0,-100.00,SW,234,13.0,22.0,96,0.05,,,0.06,46.000000,,2013-02-05 19:52:00,
2013-02-05 15:02:00,35.0,34.0,-100.00,SW,234,13.0,22.0,96,0.05,,,0.06,46.000000,,2013-02-05 20:02:00,
2013-02-05 15:11:00,35.0,34.0,-100.00,SW,234,13.0,22.0,96,0.05,,,0.06,46.000000,,2013-02-05 20:11:00,
2013-02-05 15:32:00,36.0,34.0,-100.00,WSW,239,11.0,25.0,91,0.09,,,0.14,65.000000,,2013-02-05 20:32:00,
2013-02-05 15:42:00,36.0,34.0,-100.00,WSW,239,11.0,25.0,91,0.09,,,0.14,65.000000,,2013-02-05 20:42:00,
2013-02-05 15:52:00,36.0,34.0,-100.00,WSW,239,11.0,25.0,91,0.09,,,0.14,65.000000,,2013-02-05 20:52:00,
2013-02-05 16:02:00,36.0,34.0,-100.00,WSW,239,11.0,25.0,91,0.09,,,0.14,65.000000,,2013-02-05 21:02:00,
2013-02-05 16:11:00,36.0,34.0,-100.00,WSW,239,11.0,25.0,91,0.09,,,0.14,65.000000,,2013-02-05 21:11:00,
2013-02-05 16:42:00,35.0,30.0,-100.00,SW,233,14.0,24.0,83,0.04,,,0.18,68.000000,,2013-02-05 21:42:00,
2013-02-05 16:52:00,35.0,30.0,-100.00,SW,233,14.0,24.0,83,0.04,,,0.18,68.000000,,2013-02-05 21:52:00,
2013-02-05 17:02:00,35.0,30.0,-100.00,SW,233,14.0,24.0,83,0.04,,,0.18,68.000000,,2013-02-05 22:02:00,
2013-02-05 17:11:00,35.0,30.0,-100.00,SW,233,14.0,24.0,83,0.04,,,0.18,68.000000,,2013-02-05 22:11:00,
2013-02-05 17:42:00,35.0,30.0,-100.00,WSW,246,9.0,19.0,82,0.03,,,0.21,35.000000,,2013-02-05 22:42:00,
2013-02-05 17:52:00,35.0,30.0,-100.00,WSW,246,9.0,19.0,82,0.03,,,0.21,35.000000,,2013-02-05 22:52:00,
2013-02-05 18:02:00,35.0,30.0,-100.00,WSW,246,9.0,19.0,82,0.03,,,0.21,35.000000,,2013-02-05 23:02:00,
2013-02-05 18:11:00,35.0,30.0,-100.00,WSW,246,9.0,19.0,82,0.03,,,0.21,35.000000,,2013-02-05 23:11:00,
2013-02-05 18:33:00,32.0,28.0,-100.00,SW,235,10.0,19.0,85,0.01,,,0.22,2.000000,,2013-02-05 23:33:00,
2013-02-05 18:42:00,32.0,28.0,-100.00,SW,235,10.0,19.0,85,0.01,,,0.22,2.000000,,2013-02-05 23:42:00,
2013-02-05 18:53:00,32.0,28.0,-100.00,SW,235,10.0,19.0,85,0.01,,,0.22,2.000000,,2013-02-05 23:53:00,
2013-02-05 19:02:00,32.0,28.0,-100.00,SW,235,10.0,19.0,85,0.01,,,0.22,2.000000,,2013-02-06 00:02:00,
2013-02-05 19:12:00,32.0,28.0,-100.00,SW,235,10.0,19.0,85,0.01,,,0.22,2.000000,,2013-02-06 00:12:00,
2013-02-05 19:32:00,30.0,28.0,-100.00,SW,235,8.0,16.0,93,0.00,,,-99.99,0.000000,,2013-02-06 00:32:00,
2013-02-05 19:42:00,30.0,28.0,-100.00,SW,235,8.0,16.0,93,0.00,,,-99.99,0.000000,,2013-02-06 00:42:00,
2013-02-05 19:52:00,30.0,28.0,-100.00,SW,235,8.0,16.0,93,0.00,,,-99.99,0.000000,,2013-02-06 00:52:00,
2013-02-05 20:02:00,30.0,28.0,-100.00,SW,235,8.0,16.0,93,0.00,,,-99.99,0.000000,,2013-02-06 01:02:00,
2013-02-05 20:12:00,30.0,28.0,-100.00,SW,235,8.0,16.0,93,0.00,,,-99.99,0.000000,,2013-02-06 01:12:00,
2013-02-05 20:33:00,30.0,29.0,-100.00,SW,232,6.0,13.0,95,0.00,,,0.22,0.000000,,2013-02-06 01:33:00,
2013-02-05 20:42:00,30.0,29.0,-100.00,SW,232,6.0,13.0,95,0.00,,,0.22,0.000000,,2013-02-06 01:42:00,
2013-02-05 20:53:00,30.0,29.0,-100.00,SW,232,6.0,13.0,95,0.00,,,0.22,0.000000,,2013-02-06 01:53:00,
2013-02-05 21:02:00,30.0,29.0,-100.00,SW,232,6.0,13.0,95,0.00,,,0.22,0.000000,,2013-02-06 02:02:00,
2013-02-05 21:12:00,30.0,29.0,-100.00,SW,232,6.0,13.0,95,0.00,,,0.22,0.000000,,2013-02-06 02:12:00,
2013-02-05 21:42:00,30.0,29.0,-100.00,WSW,238,5.0,10.0,96,0.00,,,0.22,0.000000,,2013-02-06 02:42:00,
2013-02-05 21:53:00,30.0,29.0,-100.00,WSW,238,5.0,10.0,96,0.00,,,0.22,0.000000,,2013-02-06 02:53:00,
2013-02-05 22:03:00,30.0,29.0,-100.00,WSW,238,5.0,10.0,96,0.00,,,0.22,0.000000,,2013-02-06 03:03:00,
2013-02-05 22:12:00,30.0,29.0,-100.00,WSW,238,5.0,10.0,96,0.00,,,0.22,0.000000,,2013-02-06 03:12:00,
2013-02-05 22:33:00,30.0,29.0,-100.00,SW,227,3.0,8.0,96,0.00,,,0.22,0.000000,,2013-02-06 03:33:00,
2013-02-05 22:43:00,30.0,29.0,-100.00,SW,227,3.0,8.0,96,0.00,,,0.22,0.000000,,2013-02-06 03:43:00,
2013-02-05 22:53:00,30.0,29.0,-100.00,SW,227,3.0,8.0,96,0.00,,,0.22,0.000000,,2013-02-06 03:53:00,
2013-02-05 23:02:00,30.0,29.0,-100.00,SW,227,3.0,8.0,96,0.00,,,0.22,0.000000,,2013-02-06 04:02:00,
2013-02-05 23:11:00,30.0,29.0,-100.00,SW,227,3.0,8.0,96,0.00,,,0.22,0.000000,,2013-02-06 04:11:00,
2013-02-05 23:42:00,30.0,29.0,-100.00,WSW,249,2.0,6.0,96,0.00,,,0.22,0.000000,,2013-02-06 04:42:00,
2013-02-05 23:52:00,30.0,29.0,-100.00,WSW,249,2.0,6.0,96,0.00,,,0.22,0.000000,,2013-02-06 04:52:00,